Regional Weather Roundup
Issued by NWS Charleston, SC

Current Version | Previous Version | Graphics & Text | Print | Product List | Glossary On
Versions: 1 2 3 4 5 6 7 8 9 10 11 12 13 14 15 16 17 18 19 20 21 22 23 24 25 26 27 28 29 30 31 32 33 34 35 36 37 38 39 40 41 42 43 44 45 46 47 48 49 50
000
ASUS42 KCHS 171912
RWRCHS

REGIONAL WEATHER ROUNDUP
NATIONAL WEATHER SERVICE CHARLESTON SC
300 PM EDT TUE OCT 17 2017

NOTE: "FAIR" INDICATES FEW OR NO CLOUDS BELOW 12,000 FEET WITH NO
SIGNIFICANT WEATHER AND/OR OBSTRUCTIONS TO VISIBILITY.

NOT ALL STATIONS ARE QUALITY CONTROLLED. USE DATA WITH CAUTION...
ESPECIALLY DEWPOINT OBSERVATIONS.

SCZ027-030-031-034>040-042>050-172000-
...SOUTHEAST SOUTH CAROLINA...

CITY           SKY/WX    TMP DP  RH WIND       PRES   REMARKS
N CHARLESTON   MOSUNNY   66  43  43 NE15      30.23F
WATERFRONT PRK   N/A     61  53  75 NE15G22   30.10F
JOHNS ISLAND   FAIR      61  48  63 N15       30.23F
PINOPOLIS        N/A     64  45  48 NE15      30.16F
MONCKS CORNER  FAIR      66  37  34 N10G16    30.24F
SUMMERVILLE    FAIR      66  41  39 N13       30.25F
BEAUFORT MCAS  MOSUNNY   70  44  39 NE14G22   30.22F
BEAUFORT ARPT  FAIR      68  45  42 NE16G24   30.22F
HILTON HEAD IS PTSUNNY   64  46  52 NE17G24   30.22F
WALTERBORO     CLEAR     68  39  34 N7        30.25F
ALLENDALE      NOT AVBL

...SOUTHERN MIDLANDS AND PEE DEE...

CITY           SKY/WX    TMP DP  RH WIND       PRES   REMARKS
GEORGETOWN     FAIR      61  46  59 NE13G18   30.25F
KINGSTREE      FAIR      66  36  32 N9        30.26F
ORANGEBURG     SUNNY     68  35  29 NE8       30.26F
BARNWELL         N/A     70  39  32 N12G18    30.25F
AIKEN          FAIR      64  37  36 N12       30.30F
MANNING        HAZE      68  45  42 MISG      30.26F VSB<1/4
COLUMBIA       MOSUNNY   69  39  33 NE7       30.26F
SUMTER         SUNNY     67  35  30 NE15      30.25F
FLORENCE       SUNNY     66  34  30 N13       30.27F
MYRTLE BEACH   MOSUNNY   64  45  49 NE15      30.26F
N MYRTLE BEACH CLOUDY    63  47  55 NE13G18   30.25S

$$

GAZ063-065-086>088-099>101-113>116-118-119-134>141-150-172000-
...SOUTHEAST GEORGIA...

CITY           SKY/WX    TMP DP  RH WIND       PRES   REMARKS
SAVANNAH ARPT  MOSUNNY   71  44  37 NE12G20   30.21F
HUNTER AAF     NOT AVBL
FORT STEWART   SUNNY     71  47  42 N13       30.19F
STATESBORO     SUNNY     70  33  25 NE8       30.23F
SYLVANIA       CLEAR     71  43  36 E9G18     30.24F
CLAXTON        FAIR      71  42  35 N8G16     30.23F

...CSRA...CENTRAL AND FAR SOUTHEAST GEORGIA...

CITY           SKY/WX    TMP DP  RH WIND       PRES   REMARKS
THOMSON        SUNNY     67  38  35 NE7       30.32F
AUGUSTA-BUSH   SUNNY     72  38  29 NE8       30.25F
AUGUSTA-DANIEL SUNNY     69  38  32 VRB6      30.26F
SWAINSBORO     FAIR      70  37  30 MISG      30.24F
VIDALIA        SUNNY     72  41  33 E12       30.22F
EASTMAN        FAIR      73  12   9 NE13      30.25S
HAZLEHURST     FAIR      72  13  10 NE7G16    30.21F
ALMA           SUNNY     72  44  36 NE10G16   30.20F
WAYCROSS       CLOUDY    71  46  40 NE10G18   30.20F
JESUP          NOT AVBL
BAXLEY         FAIR      70  41  35 N13G18    30.21F
BRUNSWICK      CLOUDY    64  52  63 N13G18    30.21S
SAINT SIMONS   CLOUDY    67  56  67 N13G22    30.19S

$$

SCZ027-028-034-036>038-045-046-048>050-GAZ119-141-172000-
...LAKE AND SUPPLEMENTAL COASTAL OBSERVATIONS...

STATION/POSITION TIME  TEMP    WIND        PRES    WAVE   SWELL
                       AIR SEA DIR/SP/G            HT/PER HT/PER/DIR
                 (UTC) (F)     (DEG/KT/KT) (MB)    (FT/S) (FT/S/D)
WINYAH BAY       1745   59      20/  9     1025.0
LAKE MURRAY      1820   65      50/  3/ 10 1024.7
ACE BASIN NERRS  1745   61      10/  5     1025.0
FORT PULASKI     1836   63 77   30/ 13/ 16 1023.5F
SAPELO ISLAND    1800   65      20/ 17     1023.0

$$

ANZ835-935-AMZ111-154-330-350-352-354-370-450-454-472-172000-
...C-MAN AND BUOY OBSERVATIONS...

STATION/POSITION TIME  TEMP    WIND        PRES    WAVE   SWELL
                       AIR SEA DIR/SP/G            HT/PER HT/PER/DIR
                 (UTC) (F)     (DEG/KT/KT) (MB)    (FT/S) (FT/S/D)
BUOY 41004       1850   69 80   20/ 23/ 29 1021.3F   9/ 6   3/100/11
BUOY 41008       1850   67 78   30/ 25/ 29 1021.3F   7/ 6   2/ 80/10
FOLLY BEACH CMAN 1800   61      10/ 15/ 19 1024.5F
CAPERS NEARSHORE 1808   60 76   30/ 17/ 25 1023.4F
FRIPP NEARSHORE  1808   62      30/ 17/ 23   N/A


STATION/POSITION TIME  TEMP    WIND        PRES    WAVE   SWELL
                       AIR SEA DIR/SP/G            HT/PER HT/PER/DIR
                 (UTC) (F)     (DEG/KT/KT) (MB)    (FT/S) (FT/S/D)
5E ST. MARYS GA  1830      79                N/A     7/ 6   2/110/11
FRYING PAN BUOY  1850   67 77   30/ 23/ 29 1022.4S   8/ 7   3/ 90/10
BUOY 41025       1850   63 81   10/ 21/ 25 1023.1F   8/ 9   5/ 70/ 9
CAPE LOOKOUT NC  1800   63      20/ 18/ 21 1024.1F
BUOY 41002       1850   76 80   40/ 21/ 27 1016.5R  11/10   7/ 50/10
BUOY 41010       NOT AVBL
ST AUGUSTINE FL  1900   74 80   10/ 29/ 32 1019.0F


$$




USA.gov is the U.S. government's official web portal to all federal, state and local government web resources and services.